Location: Unspecified
(44.7900°N, 0.0000°E)
Time: 17:54:45
(UTC+00:00)

OTV 5 (USA 277) - Visible Passes

Search period start: 25 June 2019 00:00
Search period end: 05 July 2019 00:00
Orbit: 280 x 298 km, 54.5° (Epoch: 21 June)

Date Brightness Start Highest point End Pass type
(mag) Time Alt. Az. Time Alt. Az. Time Alt. Az.
25 Jun ? 00:10:09 10° N 00:10:58 11° N 00:11:47 10° NNE visible
25 Jun ? 01:42:53 10° NW 01:45:13 37° NNE 01:47:34 10° ESE visible
25 Jun ? 03:17:08 10° W 03:18:44 16° SW 03:20:20 10° S visible
25 Jun ? 21:05:22 10° WNW 21:07:18 20° NNW 21:09:14 10° NNE visible
26 Jun ? 00:14:52 10° NNW 00:16:19 14° NNE 00:17:45 10° NE visible
26 Jun ? 01:47:54 10° NW 01:49:08 25° NW 01:49:08 25° NW visible
26 Jun ? 21:11:07 10° NW 21:12:35 14° NNW 21:14:03 10° NNE visible
27 Jun ? 00:19:41 10° NNW 00:21:36 20° NNE 00:21:52 19° NNE visible
27 Jun ? 21:17:05 10° NNW 21:17:56 11° NNW 21:18:46 10° N visible
27 Jun ? 22:51:55 10° N 22:52:31 11° N 22:53:08 10° NNE visible
28 Jun ? 00:24:34 10° NW 00:25:38 20° NNW 00:25:38 20° NNW visible
28 Jun ? 22:56:36 10° NNW 22:57:53 13° NNE 22:59:10 10° NE visible
29 Jun ? 00:29:33 10° NW 00:29:41 11° NW 00:29:41 11° NW visible
29 Jun ? 23:01:23 10° NNW 23:03:11 18° NNE 23:03:40 17° NE visible
30 Jun ? 21:33:46 10° N 21:34:05 10° N 21:34:24 10° NNE visible
30 Jun ? 23:06:16 10° NW 23:08:00 25° N 23:08:00 25° N visible
01 Jul ? 21:38:20 10° NNW 21:39:27 12° NNE 21:40:33 10° NE visible
01 Jul ? 23:11:12 10° NW 23:12:23 23° NW 23:12:23 23° NW visible
02 Jul ? 21:43:06 10° NNW 21:44:46 16° NNE 21:46:26 10° ENE visible
02 Jul ? 23:16:16 10° WNW 23:16:52 16° WNW 23:16:52 16° WNW visible
03 Jul ? 21:47:57 10° NNW 21:50:02 23° NNE 21:51:06 18° ENE visible
04 Jul ? 21:52:52 10° NW 21:55:14 40° NNE 21:55:40 36° ENE visible
